GFSNGP_con_lsi_132.txt.gz
Lid_Strength_Index
12 11 12 13 13 13 14 13 16 13 13 10 9 8 9 9 8 8 8 9 9 9 9 8 8 8 8 7 7 6 6 7 7 6 3 3 5 4 4 4 5 5 3 3
15 12 12 13 12 12 12 12 13 12 12 8 8 8 9 9 8 9 10 10 9 9 9 10 9 9 9 8 7 7 7 6 6 7 7 6 6 7 7 7 7 7 7 8
17 13 13 17 13 12 12 11 11 14 10 8 8 9 10 11 11 11 12 11 11 11 10 10 10 10 11 10 9 9 8 6 8 8 9 9 9 9 9 8 8 9 9 9
17 15 20 13 9 9 11 10 10 9 9 10 11 10 12 12 13 13 13 12 12 12 11 11 10 10 11 11 12 11 9 8 9 10 11 11 11 10 10 10 10 10 10 10
17 17 15 13 12 11 12 12 13 12 13 13 12 10 12 13 13 13 13 13 12 12 12 12 11 11 12 12 12 12 11 11 11 11 11 11 11 11 10 11 11 11 12 13
16 19 22 14 12 10 9 16 14 13 15 15 13 13 13 15 14 14 14 13 13 13 13 13 13 13 13 13 13 13 12 12 12 11 11 11 10 11 13 13 13 13 13 14
17 19 16 14 12 10 17 16 16 15 16 17 16 16 16 15 15 15 15 14 14 15 15 15 15 15 15 14 14 13 14 13 12 12 12 11 11 13 13 13 13 13 13 14
15 17 18 16 14 14 17 17 17 17 18 18 18 17 17 17 17 16 16 16 16 17 17 17 16 16 16 17 15 15 15 15 13 12 12 12 12 12 13 13 13 13 14 14
14 16 17 18 19 18 17 18 19 19 19 19 19 19 19 19 18 17 17 17 17 18 19 18 18 18 19 18 17 17 17 16 13 12 12 13 13 13 13 12 12 13 14 14
16 16 19 19 19 19 19 20 20 20 20 20 21 20 20 19 18 18 18 18 18 20 20 21 20 20 20 20 19 20 20 17 14 12 12 12 13 13 13 13 13 13 14 14
18 17 17 19 21 20 20 20 21 21 21 21 21 21 20 20 19 19 19 19 20 21 21 22 21 22 21 21 21 21 20 18 15 13 12 14 14 14 15 14 13 13 13 14
18 23 21 21 21 22 22 22 22 22 22 21 21 21 20 21 20 20 21 22 22 23 23 23 23 23 22 22 22 22 20 17 14 14 14 14 15 14 12 13 12 12 12 13
26 25 24 22 23 23 24 24 23 23 23 22 22 22 22 21 21 21 22 23 24 24 23 23 23 23 23 22 22 21 20 17 15 15 15 15 15 16 17 15 12 12 12 12
24 24 25 26 26 25 25 24 24 24 23 23 23 23 22 22 22 23 23 23 23 24 24 24 23 24 23 22 22 20 20 19 17 17 16 15 15 16 16 18 19 19 16 16
26 26 26 26 26 27 27 27 27 26 25 25 24 25 23 24 24 23 23 23 24 24 25 25 24 24 22 22 21 20 20 20 19 19 18 18 17 18 18 19 21 22 21 20
28 29 30 29 29 29 29 29 29 28 27 26 26 25 24 25 25 25 24 24 25 25 25 25 25 23 23 22 22 21 21 21 21 21 21 21 20 20 21 22 23 23 23 22
32 32 32 33 32 32 32 31 29 28 28 29 27 25 27 28 27 25 24 24 25 25 25 25 26 23 23 23 23 23 22 22 22 22 23 23 23 23 23 23 24 24 25 21
33 34 34 34 34 33 32 32 32 31 30 27 28 27 28 27 25 24 24 25 25 25 25 25 24 23 24 24 24 23 23 23 24 24 24 24 24 23 24 24 25 25 25 24
35 35 35 33 34 33 33 33 33 31 31 28 29 28 26 26 25 25 24 25 26 27 26 24 21 23 24 23 23 24 24 24 24 24 24 24 25 25 26 26 26 26 25 25
36 35 35 35 35 34 34 34 34 33 32 30 28 29 29 27 26 25 24 25 25 25 24 23 23 23 23 24 22 24 24 24 24 24 24 25 25 25 25 25 25 25 26 26
33 33 35 35 35 35 34 34 34 33 32 32 30 31 29 27 26 24 24 25 24 23 23 23 23 22 23 23 23 24 24 24 25 25 25 25 25 25 25 25 25 25 25 26
33 35 36 36 35 34 33 33 32 33 32 32 32 32 32 29 27 24 25 26 24 24 23 24 23 22 23 23 24 24 24 25 25 25 25 26 26 26 26 26 27 26 26 26
35 35 34 34 34 33 33 33 33 33 33 34 34 34 32 29 28 26 27 25 24 24 24 24 23 22 22 24 25 25 25 26 26 26 26 26 26 26 27 27 27 27 27 27
34 34 34 34 36 35 33 33 34 33 33 34 33 33 32 30 27 28 28 26 24 24 24 24 23 21 24 26 26 26 26 27 27 27 27 27 27 27 27 28 28 28 28 28
35 36 36 36 35 32 33 32 33 33 33 32 31 31 31 30 29 29 28 27 24 25 25 23 21 22 25 26 26 26 26 26 26 26 27 27 27 27 27 27 27 28 28 28
35 34 33 34 32 33 32 32 32 31 31 31 32 30 31 30 29 27 27 26 27 26 28 27 28 28 28 28 27 27 26 26 26 26 27 28 28 28 28 28 28 28 29 29
36 34 35 34 33 32 33 32 32 32 32 33 32 30 31 30 29 27 27 27 27 28 28 30 29 28 29 29 28 28 28 27 26 27 28 29 28 29 28 28 28 28 28 28

GFSNGP_con_lsi_135.txt.gz
Lid_Strength_Index
12 12 12 13 13 13 14 13 15 13 13 10 9 9 10 9 10 11 11 12 12 12 12 12 12 11 11 11 11 10 10 10 9 7 6 6 6 5 4 5 5 5 4 4
14 12 12 14 13 12 12 12 13 13 13 8 9 8 10 11 12 13 13 13 13 13 13 12 12 12 11 11 11 11 11 11 9 9 9 7 7 8 8 7 6 6 6 7
17 13 13 17 13 13 12 11 12 15 11 9 10 12 13 14 14 14 15 15 14 14 14 13 13 13 13 13 13 11 12 11 10 12 12 11 10 10 9 9 8 8 8 8
16 16 20 13 11 10 11 12 12 12 13 13 12 14 15 15 15 15 15 15 15 15 15 15 15 14 14 14 14 12 13 12 12 12 12 12 12 11 11 9 10 10 9 9
17 18 16 14 13 11 12 14 16 14 15 15 14 13 16 15 15 16 16 15 15 15 15 16 16 16 16 16 15 14 14 14 14 13 13 12 12 11 10 10 10 11 11 12
18 19 22 14 13 12 10 15 16 15 17 17 14 14 16 17 16 16 16 15 16 16 16 17 16 17 17 17 17 16 16 16 15 14 14 13 11 11 10 11 11 12 13 13
17 21 17 14 14 13 17 16 17 17 18 18 17 18 18 17 18 17 17 16 16 17 18 17 18 18 18 18 18 18 18 17 16 15 14 13 11 11 11 11 13 12 12 13
15 17 19 18 16 14 17 18 18 18 19 19 19 18 18 18 18 18 18 18 18 19 19 19 18 19 20 20 19 19 19 19 19 17 15 13 12 11 11 12 12 13 13 13
16 17 19 19 20 18 17 19 20 20 20 20 20 20 20 20 20 19 19 19 19 20 20 20 20 20 21 21 21 21 21 22 21 18 16 13 12 12 11 12 12 13 13 13
18 19 20 20 20 20 20 21 20 21 21 21 22 21 21 21 20 20 20 20 21 21 22 22 21 21 22 21 21 22 23 22 21 19 17 13 11 11 11 11 12 12 13 13
19 20 21 21 21 21 21 21 22 22 22 22 21 22 21 21 21 20 21 21 22 23 23 23 22 22 22 22 22 23 22 22 20 17 15 13 12 13 13 12 12 12 12 12
19 21 21 22 23 22 23 23 23 23 23 22 22 22 22 22 21 21 22 22 23 23 23 23 23 23 23 22 23 23 23 21 20 18 15 14 13 13 11 11 11 11 11 12
25 26 24 24 25 24 24 24 24 23 23 23 23 23 23 23 22 22 23 23 24 24 24 24 24 23 22 22 22 22 21 21 20 18 16 15 14 15 16 15 13 14 13 11
26 24 26 27 27 26 25 25 24 24 24 24 24 24 24 24 24 25 24 25 24 25 25 25 24 24 22 22 22 22 21 20 19 18 18 17 16 16 17 19 19 19 16 15
28 27 27 26 27 28 29 29 29 27 27 27 27 28 26 27 28 27 28 28 27 28 26 25 25 24 22 23 23 22 21 21 20 20 19 18 18 19 19 20 21 20 19 18
29 30 30 30 30 32 32 32 32 31 30 29 29 27 26 29 31 31 31 30 28 27 25 25 25 23 23 23 23 22 22 21 21 21 21 21 21 21 21 21 22 22 20 21
32 34 35 35 34 34 34 34 33 32 32 33 32 30 31 32 33 32 30 30 30 29 26 25 25 22 23 24 23 23 23 23 22 22 22 22 22 23 22 23 23 23 24 20
35 36 35 35 34 35 34 35 35 35 33 32 33 34 33 34 33 31 29 29 28 27 24 24 23 22 23 23 22 22 23 23 23 23 23 23 23 24 24 24 24 25 24 24
37 35 36 35 36 36 36 34 34 34 33 34 35 34 34 33 32 31 31 30 29 27 25 23 20 22 23 22 21 22 23 23 23 23 23 23 23 24 24 24 24 25 25 25
37 38 38 37 36 34 33 34 35 35 34 35 37 34 33 31 31 30 30 29 28 26 24 23 23 22 22 23 21 22 23 23 23 23 23 24 24 24 24 24 24 25 25 24
36 36 34 34 33 34 33 33 34 34 35 37 35 34 35 33 34 33 31 32 30 28 25 23 23 22 22 23 23 23 23 24 24 24 24 25 24 25 25 25 25 25 25 25
36 35 34 34 34 33 34 34 36 37 37 37 37 37 37 34 35 33 33 30 30 26 25 26 24 22 23 23 24 24 24 25 25 25 25 25 26 26 26 26 26 26 26 26
33 34 34 35 35 34 38 37 36 37 36 36 35 35 34 32 32 32 31 30 31 27 28 26 23 21 22 24 25 25 26 26 26 26 26 26 26 27 27 27 27 27 27 27
38 38 37 38 40 38 34 35 38 37 36 35 35 33 33 31 29 31 30 28 27 26 27 26 23 20 24 28 26 26 27 26 26 26 26 26 26 26 27 27 27 27 27 27
37 38 39 39 37 34 37 37 37 37 37 35 34 33 34 32 29 30 31 29 26 26 28 25 21 22 31 33 32 30 30 30 30 29 29 29 28 28 28 28 28 28 28 28
38 36 36 36 34 36 36 37 34 36 36 34 35 34 34 34 32 29 29 28 29 27 30 29 31 32 33 32 33 31 30 30 28 28 28 29 29 29 29 29 28 28 29 29
40 38 39 37 37 34 35 34 35 31 35 36 32 31 33 33 30 28 27 27 28 29 29 30 30 29 30 31 30 29 29 30 28 28 32 32 31 32 30 30 30 29 29 29

GFSNGP_con_lsi_138.txt.gz
Lid_Strength_Index
13 13 13 13 13 13 14 14 16 14 13 11 9 9 10 10 11 12 13 14 14 14 14 14 15 15 13 14 14 13 13 12 12 10 11 11 11 10 10 9 7 6 4 4
15 13 13 14 13 12 13 13 13 13 13 9 8 8 11 12 13 14 15 15 15 15 15 15 16 16 14 16 16 15 14 13 13 12 12 12 11 11 11 10 9 8 8 7
17 13 14 16 14 13 12 11 12 15 11 9 9 11 14 15 15 16 16 17 16 16 16 16 17 15 17 17 16 16 15 14 15 14 15 14 13 12 11 10 9 9 9 8
16 15 20 14 12 10 11 11 10 14 13 12 12 15 16 16 17 17 18 18 17 17 17 17 17 17 18 17 17 17 17 16 17 17 17 16 15 13 12 11 10 9 9 8
17 17 16 15 13 12 13 13 16 15 16 15 16 17 18 17 17 18 18 17 17 17 17 17 18 18 18 18 18 18 18 19 19 18 18 18 17 15 13 11 11 10 9 10
16 21 22 15 14 13 11 15 16 15 16 16 15 16 19 18 18 18 18 18 18 18 18 19 19 19 19 19 19 19 19 19 19 19 18 18 17 16 13 11 11 11 10 10
16 21 18 15 16 14 16 15 17 17 18 18 18 19 19 19 19 18 18 19 19 20 21 20 20 20 20 20 20 20 20 20 20 19 19 19 18 15 14 12 11 11 11 11
16 21 18 20 16 15 17 18 18 19 19 19 19 19 20 20 20 19 20 20 20 22 22 21 20 21 21 21 20 20 21 21 21 21 20 18 18 16 14 12 11 11 11 11
15 17 21 20 20 18 17 19 20 20 20 20 21 21 21 21 20 20 21 21 21 22 22 21 21 21 22 21 20 21 22 22 22 21 20 19 18 16 13 11 11 11 11 11
19 21 22 21 21 21 20 21 21 21 22 21 22 22 22 21 21 21 21 22 22 22 23 23 22 22 22 21 21 22 23 22 21 20 19 18 16 14 13 12 11 11 11 11
22 22 21 22 21 21 22 22 22 22 22 22 22 23 23 22 22 21 21 22 22 23 23 24 23 23 23 21 22 22 22 21 20 19 19 18 16 14 12 12 12 12 11 11
18 21 21 21 22 21 23 24 23 23 23 23 23 23 23 23 22 22 23 23 24 24 24 25 25 24 24 22 22 22 22 20 20 19 18 17 16 12 11 11 12 12 12 10
26 25 24 25 25 24 25 25 24 24 23 24 24 24 24 24 23 24 24 24 25 25 25 26 26 25 23 23 22 22 22 20 20 19 19 18 17 17 18 16 14 13 13 13
25 24 26 27 27 26 26 25 25 26 25 25 25 25 25 26 26 27 27 27 27 28 28 28 28 27 23 23 23 22 21 20 21 20 20 20 20 19 20 20 20 18 16 16
29 28 27 28 28 29 29 29 29 28 28 28 28 30 30 31 31 31 31 30 30 33 30 29 28 26 23 23 23 23 21 21 21 21 21 21 21 21 21 21 22 21 19 18
30 31 30 30 31 32 33 34 33 32 32 31 32 30 29 32 34 34 33 32 30 29 29 28 27 24 23 23 23 22 22 21 21 21 21 22 22 22 23 23 23 23 22 21
32 35 36 36 34 34 35 35 34 34 34 35 34 35 35 35 35 34 32 32 33 31 30 30 26 23 23 23 22 22 21 21 21 22 22 21 22 23 23 24 24 24 24 21
36 36 36 33 33 34 36 37 38 37 35 34 36 36 35 34 34 33 32 34 33 32 32 29 25 23 24 23 22 22 21 21 21 22 22 22 22 22 23 23 24 24 24 23
39 35 38 34 36 37 38 37 36 35 35 36 35 34 37 37 37 35 35 35 33 33 27 27 20 24 26 23 21 22 22 22 22 22 22 22 23 23 23 23 24 24 24 24
39 40 40 39 40 37 34 35 36 36 36 36 38 37 37 37 38 37 37 33 32 31 31 30 29 27 28 26 22 23 24 24 24 24 24 24 24 24 24 24 24 24 24 24
38 40 38 37 35 36 35 35 35 33 35 40 37 36 36 36 39 39 35 34 31 34 31 28 29 25 29 26 26 26 26 25 25 25 25 25 25 25 25 26 26 25 26 25
39 37 36 36 35 34 35 36 37 39 39 39 40 41 40 35 38 36 35 32 32 30 31 31 29 25 27 24 28 29 28 28 28 26 26 26 26 27 27 27 27 27 27 27
37 36 35 36 35 34 40 39 39 39 37 37 36 37 36 34 35 34 32 32 34 31 31 30 28 22 22 29 30 30 31 30 29 28 28 28 27 27 27 27 27 27 27 27
38 39 37 40 41 39 35 35 40 37 38 39 36 35 35 33 31 34 32 31 30 29 31 29 26 20 26 33 34 33 33 33 31 32 31 28 31 30 31 29 29 28 28 29
37 38 40 39 37 33 38 39 41 39 39 38 35 33 34 32 30 32 34 31 28 28 30 27 22 23 34 36 35 35 33 33 33 35 34 35 34 34 33 32 31 30 29 29
38 34 34 35 34 36 35 39 34 37 39 34 35 33 35 37 33 31 30 28 27 26 26 27 28 27 27 27 28 28 28 30 30 31 32 33 33 33 33 32 31 31 31 31
41 39 41 39 38 37 37 36 37 31 34 34 32 33 34 35 33 30 28 26 24 24 24 24 24 24 25 26 27 27 29 31 29 30 33 33 33 34 33 32 32 31 31 30

GFSNGP_con_lsi_141.txt.gz
Lid_Strength_Index
12 13 13 13 13 13 14 13 16 14 14 11 11 11 12 12 12 13 14 15 15 15 16 16 17 17 16 17 17 16 16 15 15 15 15 15 15 14 13 12 11 10 9 9
15 12 13 14 13 12 12 12 12 13 14 9 8 9 10 11 12 14 15 16 16 16 17 18 18 18 18 18 18 17 17 17 16 17 17 17 16 16 15 14 12 11 10 10
17 13 14 17 14 13 12 11 12 15 11 9 10 11 14 14 14 16 17 17 17 18 18 19 19 19 20 19 18 18 18 17 18 18 19 18 18 17 17 15 13 12 11 10
16 15 20 13 10 10 11 11 10 12 11 10 12 17 17 17 17 18 19 19 19 19 20 20 19 20 20 19 19 19 18 19 19 19 19 18 18 18 18 16 15 13 11 11
17 17 15 15 13 12 13 13 12 11 15 17 18 17 20 19 19 19 19 19 19 19 20 20 20 20 20 19 19 19 20 20 20 19 19 19 19 19 18 17 16 14 12 11
17 19 20 15 14 14 10 15 15 15 16 18 16 16 19 20 19 19 19 19 20 20 20 21 21 20 20 20 20 21 21 20 20 20 20 20 19 19 18 17 16 14 12 11
16 17 15 14 17 15 16 15 17 16 16 16 18 20 20 20 20 19 19 20 20 21 22 22 21 20 21 21 21 21 21 21 21 21 21 20 19 18 18 17 16 14 12 11
16 17 18 20 17 15 17 18 18 19 19 19 20 20 20 20 20 20 21 21 21 22 22 22 21 21 22 22 22 22 22 22 22 21 20 18 19 19 17 16 15 13 12 11
14 16 21 22 21 19 18 19 20 20 20 20 21 22 21 21 21 21 22 22 22 23 23 22 22 22 23 23 22 22 23 23 22 20 19 18 18 17 16 16 14 13 12 12
19 21 22 22 22 21 20 21 21 21 21 20 22 22 22 22 22 22 22 23 23 23 24 24 23 23 23 23 22 23 24 22 20 20 20 18 17 16 14 12 14 14 15 14
22 22 22 22 22 22 22 22 23 22 22 22 22 24 23 23 23 23 23 23 23 24 24 25 24 24 24 23 23 24 23 21 20 20 20 19 17 16 15 14 13 14 15 14
18 21 21 22 22 22 23 23 23 23 24 23 22 23 23 23 23 23 24 24 25 25 25 26 26 26 25 24 24 24 23 22 21 20 20 19 19 18 15 13 13 13 12 13
25 26 25 24 24 23 24 24 23 23 23 25 24 24 24 24 24 25 26 26 26 27 27 28 28 28 27 25 25 24 24 22 21 21 20 20 20 19 20 18 16 15 14 15
26 25 26 27 27 26 25 25 25 26 26 25 26 26 26 27 27 28 28 29 29 31 31 31 31 30 27 25 26 26 25 22 22 21 20 20 20 20 20 21 22 22 18 17
29 28 27 28 28 29 29 29 29 28 29 29 30 30 31 32 32 32 33 33 34 35 34 32 32 30 26 26 26 27 24 22 22 21 20 20 20 20 21 21 22 22 22 19
31 31 30 30 31 32 32 34 32 33 33 33 33 31 32 33 35 36 36 36 33 32 32 34 32 29 28 28 26 25 24 21 22 22 21 21 21 21 21 22 22 23 23 21
31 32 34 34 32 34 36 37 34 34 35 36 36 37 37 37 37 36 35 37 38 36 35 35 31 29 29 28 28 26 25 25 22 23 22 21 22 22 22 22 23 23 23 22
35 35 34 33 33 35 38 39 39 38 37 37 38 39 38 36 34 36 36 38 36 35 35 33 31 31 29 29 30 28 28 28 27 27 24 23 23 23 23 23 23 24 23 23
38 36 37 34 35 35 37 39 40 39 38 38 38 35 38 39 39 39 41 39 37 37 33 35 24 30 32 29 27 29 29 28 29 28 26 24 24 24 24 24 24 24 24 24
41 41 38 39 41 38 38 40 39 39 39 39 40 39 37 38 41 41 42 35 35 33 37 35 36 33 32 31 26 32 32 31 30 31 30 27 25 25 25 25 25 25 25 25
37 40 38 37 39 40 40 39 38 36 37 40 37 37 37 39 42 42 37 36 33 37 36 33 36 32 33 31 31 35 35 34 32 31 33 31 29 27 26 27 26 26 26 26
41 39 39 39 38 37 38 38 38 39 39 40 42 43 42 36 40 40 35 32 35 33 35 35 34 30 31 28 33 35 35 35 35 34 32 32 33 32 29 29 29 27 27 27
39 39 38 37 35 34 40 40 38 38 37 38 37 39 37 34 36 35 32 34 35 34 33 33 30 24 23 32 34 35 35 35 34 32 33 33 31 31 31 31 29 30 29 29
39 39 37 40 41 38 35 35 39 37 37 40 38 36 36 35 33 32 31 32 31 31 32 31 28 21 26 31 31 30 29 29 29 29 29 29 33 33 34 33 32 31 31 30
38 39 40 39 37 33 36 39 42 42 42 37 36 35 35 33 30 33 36 33 29 28 30 27 22 21 25 26 26 26 26 27 28 29 30 33 35 36 36 36 34 33 32 32
38 34 34 34 33 34 35 39 35 37 39 35 35 34 34 35 33 31 31 30 30 28 29 29 29 27 25 24 25 25 25 26 26 27 29 32 34 34 34 33 33 32 32 32
41 38 41 39 38 38 38 37 38 32 34 35 32 34 35 36 34 32 30 29 29 28 28 28 27 26 27 27 26 25 25 27 27 28 31 34 34 34 34 33 33 32 32 31

GFSNGP_con_lsi_147.txt.gz
Lid_Strength_Index
12 12 12 13 13 12 14 13 15 13 13 10 10 11 12 12 13 14 15 15 16 17 17 18 18 18 18 19 18 18 19 18 19 18 18 18 18 18 17 17 17 16 16 16
14 12 12 14 12 12 12 12 12 12 12 8 9 10 11 12 13 14 15 16 17 17 18 18 19 19 19 19 19 18 19 19 19 19 19 19 18 19 18 18 18 17 17 16
17 13 13 16 13 13 12 11 11 14 11 9 11 11 11 12 13 14 16 17 17 19 19 19 20 20 21 20 19 20 20 20 20 20 19 19 19 18 18 18 17 17 16 15
16 15 20 14 12 10 11 10 9 10 9 8 8 15 15 13 14 16 17 18 19 20 21 21 21 21 20 19 20 20 20 20 20 20 20 19 19 18 18 17 17 16 15 13
17 17 14 13 12 11 12 12 9 10 9 15 17 16 19 18 17 18 19 20 21 21 21 22 22 22 20 20 20 20 21 21 21 20 20 19 19 18 18 17 16 15 14 14
15 18 19 15 13 11 9 15 9 9 9 17 14 14 13 20 19 20 20 21 21 21 22 23 23 22 21 21 21 22 21 21 21 20 20 20 19 19 18 17 16 15 15 15
15 17 15 12 13 11 16 14 13 13 9 15 12 15 19 19 20 20 21 22 22 23 24 24 22 21 22 22 23 22 22 21 21 21 20 19 19 18 18 17 16 17 16 16
14 16 18 14 13 13 13 16 16 16 15 17 21 21 21 21 22 22 22 22 22 23 24 24 22 22 23 24 23 23 23 23 22 21 20 19 19 19 18 18 17 18 18 18
13 13 15 18 20 18 17 16 18 18 18 20 21 22 21 22 22 22 23 24 23 24 24 24 24 23 24 24 23 24 25 25 23 21 20 20 20 20 19 18 18 18 18 19
13 16 16 18 19 20 19 18 19 19 19 20 22 22 22 23 23 24 24 24 24 24 25 26 25 25 26 25 25 27 27 24 22 22 22 21 20 19 19 19 18 18 17 18
16 18 19 19 19 20 21 21 22 21 21 22 22 22 22 23 23 23 24 24 24 25 26 27 26 26 27 26 26 26 25 23 23 22 23 22 21 20 19 17 15 16 15 16
13 17 17 19 20 20 21 22 22 23 23 22 22 23 23 24 23 24 25 25 26 27 27 29 29 29 29 30 28 29 26 24 24 23 23 23 23 22 18 16 15 14 13 13
19 22 21 21 22 21 23 23 23 23 23 24 23 23 24 25 25 25 26 27 28 29 30 32 32 31 32 32 31 30 30 26 25 25 24 25 24 24 24 21 18 16 15 14
23 22 24 24 24 24 24 25 25 26 25 24 25 25 25 27 27 28 29 31 31 32 35 36 36 35 33 34 35 34 33 29 28 27 27 26 25 25 25 25 25 24 20 16
26 26 25 25 26 27 27 27 28 28 28 29 28 28 28 29 31 32 36 37 35 37 38 37 37 35 37 38 36 36 31 30 31 31 30 29 28 27 27 26 26 25 24 20
28 27 26 26 28 28 29 29 29 30 30 30 30 30 31 32 34 37 39 39 33 33 36 38 38 36 38 39 38 35 35 29 31 34 33 30 29 29 28 27 27 26 25 24
30 31 30 30 29 31 31 30 28 30 32 32 33 35 35 36 38 38 38 41 40 38 39 38 36 38 40 39 37 36 36 36 32 36 35 35 35 32 31 30 30 28 27 25
34 32 29 27 29 30 32 32 32 34 34 34 36 37 36 35 33 35 39 43 40 39 39 37 40 37 38 38 36 36 37 37 37 36 36 33 33 33 32 32 30 29 27 26
34 32 31 31 31 31 33 34 35 36 36 36 36 35 36 37 38 40 44 41 39 37 33 39 29 35 37 35 34 37 37 36 36 37 38 35 36 37 35 33 31 30 29 27
37 36 33 35 35 36 37 41 38 38 41 37 38 39 38 40 42 42 45 38 35 32 38 40 41 39 38 38 32 38 38 37 36 37 38 37 37 34 31 29 28 28 28 27
38 39 36 35 37 41 38 38 36 36 39 41 35 34 34 41 45 44 41 38 32 37 38 37 40 36 37 35 35 38 39 37 37 36 38 36 34 32 27 28 27 27 27 27
41 38 37 38 37 39 43 40 39 38 37 41 42 42 41 40 45 44 38 32 36 35 38 38 36 34 34 29 35 36 37 37 37 37 36 35 34 31 28 27 27 27 28 29
39 39 37 36 35 35 41 42 40 37 35 36 36 37 36 35 36 36 32 33 33 33 35 34 33 29 25 29 33 35 35 34 33 32 32 33 31 31 30 29 30 31 32 32
38 40 39 41 41 39 36 36 38 38 38 39 35 36 37 37 36 34 31 33 33 31 31 32 30 23 24 32 33 33 33 32 32 33 32 30 32 32 33 33 33 32 33 33
39 39 40 39 36 33 36 39 39 42 41 38 38 37 37 35 31 34 38 35 31 30 31 28 24 23 28 31 31 32 31 32 32 33 33 33 33 34 35 36 36 34 34 33
38 35 34 35 33 33 34 37 33 35 38 37 37 36 35 35 33 32 33 33 33 31 30 30 31 31 30 30 31 30 29 29 29 29 30 31 33 33 34 33 33 33 33 33
42 39 40 39 38 38 38 36 36 33 36 36 33 38 36 36 35 33 32 32 31 30 30 30 29 28 29 29 29 28 27 28 28 29 30 32 33 33 33 32 33 33 33 32